[Date Prev][Date Next][Thread Prev][Thread Next] - [Date Index][Thread Index][Author Index]

2 Line ISS Keps 2-27



ISS
1 25544U 98067A   04058.27172402  .00020366  00000-0  18800-3 0  2712
2 25544  51.6301 170.5058 0006261 212.7136 246.3227 15.67550307300919


----
Via the sarex mailing list at AMSAT.ORG courtesy of AMSAT-NA.
To unsubscribe, send "unsubscribe sarex" to Majordomo@amsat.org



AMSAT Top AMSAT Home